Weather Roundup
Issued by NWS Springfield, MO

Home | Current Version | Previous Version | Text Only | Print | Product List | Glossary On
Versions: 1 2 3 4 5 6 7 8 9 10 11 12 13 14 15 16 17 18 19 20 21 22 23 24 25 26 27 28 29 30 31 32 33 34 35 36 37 38 39 40 41 42 43 44 45 46 47 48 49 50
779
NZUS99 KSGF 240657
HRRSGF

HOURLY WEATHER
NATIONAL WEATHER SERVICE SPRINGFIELD MO
100 AM CST FRI FEB 24 2017

......SGF CWA......

CITY           SKY/WX    TMP DP  RH WIND       PRES   REMARKS
SPRINGFIELD    PTCLDY    67  51  56 S16       29.43R
JOPLIN         CLEAR     70  50  49 SW18      29.42
WEST PLAINS    CLEAR     63  54  72 S9        29.56R
ROLLA          CLEAR     64  55  72 S17       29.45R

......SURROUNDING SGF CWA......

CITY           SKY/WX    TMP DP  RH WIND       PRES   REMARKS
CHANUTE        CLOUDY    47  40  76 NW21G32   29.51R
PARSONS        MOCLDY    49  42  77 NW21G28   29.51R
COFFEYVILLE    PTCLDY    49  42  77 NW26G35   29.51R
EMPORIA        CLOUDY    43  38  82 NW16G26   29.52F
HARRISON AR    CLEAR     67  53  61 S16G29    29.50R

......KANSAS AND MISSOURI......

CITY           SKY/WX    TMP DP  RH WIND       PRES   REMARKS
KANSAS CTY INT CLOUDY    43  41  93 NW21G29   29.47R
SEDALIA        CLOUDY    61  52  72 SE7       29.39F
ST JOSEPH      CLOUDY    42  41  96 N20       29.47F
ST LOUIS       PTCLDY    67  53  61 S15       29.47F
WICHITA        CLOUDY    40  35  83 NW25G33   29.60R WCI  29
TOPEKA         CLOUDY    44  40  85 W9        29.53R
OLATHE         CLOUDY    43  42  97 NW24G30   29.47R

......TENNESSEE......

CITY           SKY/WX    TMP DP  RH WIND       PRES   REMARKS
MEMPHIS        NOT AVBL
NASHVILLE      PTCLDY    63  55  75 S8        29.76S

......ARKANSAS.......

CITY           SKY/WX    TMP DP  RH WIND       PRES   REMARKS
FAYETTEVILLE   CLEAR     66  53  63 S17       29.48F
FT SMITH       PTCLDY    72  52  49 S9        29.49F
LITTLE ROCK    CLEAR     61  56  83 S9        29.61F

......OKLAHOMA.......

CITY           SKY/WX    TMP DP  RH WIND       PRES   REMARKS
TULSA          CLEAR     52  43  71 NW21G28   29.52R
PONCA CITY     CLOUDY    45  38  76 NW13      29.60R
MCALESTER      PTCLDY    70  51  51 S10       29.49S
OKLAHOMA CITY  MOCLDY    45  38  76 N24       29.62R

......IOWA............

CITY           SKY/WX    TMP DP  RH WIND       PRES   REMARKS
DES MOINES     TSTM      40  38  93 NW26      29.61R FOG     WCI  29
QUAD CITIES    CLOUDY    41  36  82 E16       29.52F

......ILLINOIS........

CITY           SKY/WX    TMP DP  RH WIND       PRES   REMARKS
QUINCY         NOT AVBL
CHICAGO        LGT RAIN  40  37  89 NE21G30   29.63F WCI  30




USA.gov is the U.S. government's official web portal to all federal, state and local government web resources and services.